FW4355 Weather Reports


Display with metric or nautical units.
time (UTC)temp
F
wind
direction
speed
MPH
gust
MPH
rain 1hr
in
rain 24hr
in
rain mn
in
humidity
%
barometer
mb
20260505121507 36 355 6.0 14.0 0.04 0.21 0.08 90 1006.5
20260505121006 36 15 5.0 12.0 0.05 0.21 0.08 90 1006.5
20260505120504 36 355 2.0 14.0 0.05 0.21 0.08 90 1006.5
20260505120013 36 40 5.0 14.0 0.05 0.21 0.08 90 1006.4
20260505115503 37 349 4.0 14.0 0.05 0.21 0.08 90 1006.3
20260505115002 37 296 7.0 16.0 0.05 0.21 0.08 90 1006.2
20260505114501 37 346 7.0 17.0 0.04 0.20 0.07 90 1006.3
20260505114101 37 323 7.0 17.0 0.04 0.20 0.07 90 1006.2
20260505113559 38 360 6.0 14.0 0.04 0.20 0.07 90 1006.1
20260505113057 38 338 8.0 14.0 0.03 0.19 0.06 90 1006.0
20260505112556 38 319 6.0 15.0 0.02 0.18 0.05 90 1006.0
20260505112055 39 327 5.0 16.0 0.02 0.18 0.05 90 1005.8
20260505111554 39 294 6.0 16.0 0.01 0.17 0.04 90 1005.8
20260505111053 39 337 7.0 16.0 0.00 0.16 0.03 90 1005.8
20260505110553 39 334 3.0 11.0 0.00 0.16 0.03 90 1005.8
20260505102040 43 347 6.0 15.0 0.00 0.16 0.03 89 1004.6
20260505101558 44 360 1.0 5.0 0.00 0.16 0.03 89 1004.4
20260505101040 44 10 1.0 3.0 0.00 0.16 0.03 89 1004.4
20260505100541 44 323 0.0 9.0 0.00 0.16 0.03 89 1004.4
20260505100057 44 322 2.0 9.0 0.00 0.16 0.03 89 1004.3
20260505095539 44 346 2.0 8.0 0.00 0.16 0.03 89 1004.4
20260505095038 44 317 3.0 8.0 0.00 0.16 0.03 89 1004.6
20260505094537 44 346 3.0 9.0 0.00 0.16 0.03 89 1004.4
20260505094037 44 346 1.0 6.0 0.00 0.16 0.03 88 1004.7
20260505093538 44 355 1.0 8.0 0.00 0.16 0.03 88 1004.4
20260505093037 44 346 3.0 6.0 0.00 0.16 0.03 88 1004.0
20260505092537 44 28 1.0 7.0 0.00 0.16 0.03 88 1003.7
20260505092037 44 32 2.0 7.0 0.00 0.16 0.03 88 1003.8
20260505091536 44 36 1.0 5.0 0.00 0.16 0.03 87 1004.1
20260505091035 44 51 0.0 2.0 0.00 0.16 0.03 87 1004.2
20260505090535 43 51 0.0 2.0 0.00 0.16 0.03 87 1004.1
20260505090034 43 51 0.0 0.0 0.00 0.16 0.03 87 1004.2
20260505085534 43 51 0.0 0.0 0.00 0.16 0.03 87 1004.1
20260505085037 44 51 0.0 0.0 0.00 0.16 0.03 87 1004.0
20260505084533 43 51 0.0 0.0 0.00 0.16 0.03 87 1004.0
20260505084032 43 51 0.0 2.0 0.00 0.16 0.03 87 1004.0
20260505083534 44 51 0.0 2.0 0.00 0.16 0.03 87 1003.9
20260505083031 44 51 0.0 2.0 0.00 0.16 0.03 87 1003.8
20260505082530 44 51 0.0 4.0 0.00 0.16 0.03 87 1003.9
20260505082029 44 51 0.0 6.0 0.00 0.16 0.03 87 1004.2
20260505081529 44 52 1.0 6.0 0.00 0.16 0.03 87 1004.2
20260505081029 44 137 0.0 4.0 0.00 0.16 0.03 87 1004.5
20260505080529 44 137 1.0 6.0 0.00 0.16 0.03 87 1004.4
20260505080037 44 167 2.0 8.0 0.00 0.16 0.03 87 1004.4
20260505075529 44 215 4.0 12.0 0.00 0.16 0.03 87 1004.4
20260505075027 44 198 5.0 12.0 0.01 0.16 0.03 88 1004.3
20260505074525 44 169 6.0 11.0 0.01 0.16 0.03 88 1004.4
20260505074025 44 175 5.0 12.0 0.02 0.16 0.03 89 1004.5
20260505073524 44 170 6.0 12.0 0.02 0.16 0.03 89 1004.5
20260505073033 44 175 6.0 10.0 0.03 0.16 0.03 89 1004.7
20260505072520 44 173 3.0 6.0 0.03 0.16 0.03 89 1005.0
20260505072021 44 181 2.0 6.0 0.03 0.16 0.03 89 1004.9
20260505071519 44 182 2.0 7.0 0.03 0.16 0.03 89 1005.2
20260505071018 44 165 3.0 8.0 0.03 0.16 0.03 89 1005.0
20260505070517 44 148 1.0 5.0 0.03 0.16 0.03 89 1005.2
20260505070017 44 148 1.0 6.0 0.03 0.16 0.03 89 1005.3
20260505065516 44 148 3.0 8.0 0.03 0.16 0.03 89 1005.3
20260505065015 44 163 4.0 8.0 0.02 0.15 0.02 89 1005.4
20260505064517 44 154 4.0 8.0 0.02 0.15 0.02 89 1005.5
20260505064012 44 148 1.0 4.0 0.01 0.14 0.01 89 1005.7
20260505063512 44 131 1.0 4.0 0.01 0.14 0.01 89 1005.7
20260505063011 44 131 1.0 4.0 0.00 0.13 0.00 89 1005.7
20260505062511 44 130 0.0 4.0 0.00 0.13 0.00 89 1005.6
20260505062010 44 130 2.0 4.0 0.00 0.13 0.00 88 1005.6
20260505061520 44 101 2.0 4.0 0.01 0.13 0.00 88 1005.6
20260505061008 44 99 1.0 4.0 0.01 0.13 0.00 88 1005.5
20260505060508 44 98 0.0 3.0 0.02 0.13 0.00 88 1005.4
20260505060008 44 98 1.0 4.0 0.02 0.13 0.13 88 1005.4
20260505055506 44 98 1.0 4.0 0.03 0.13 0.13 88 1005.4
20260505055009 44 71 0.0 3.0 0.03 0.13 0.13 88 1005.4
20260505054506 44 57 0.0 2.0 0.03 0.13 0.13 88 1005.7
20260505054005 44 57 0.0 3.0 0.05 0.13 0.13 88 1005.4
20260505053506 44 55 0.0 3.0 0.06 0.13 0.13 87 1005.2
20260505053004 44 53 0.0 3.0 0.06 0.13 0.13 87 1005.2
20260505052504 44 43 1.0 3.0 0.06 0.13 0.13 87 1005.1
20260505052006 44 33 0.0 3.0 0.06 0.13 0.13 87 1005.2
20260505051509 45 33 1.0 3.0 0.05 0.12 0.12 87 1005.5
20260505051003 45 355 1.0 4.0 0.05 0.12 0.12 87 1005.8
20260505050502 45 344 1.0 4.0 0.04 0.11 0.11 86 1006.0
20260505041553 46 237 0.0 1.0 0.05 0.07 0.07 83 1005.6
20260505041052 46 237 0.0 2.0 0.06 0.07 0.07 83 1005.4
20260505040552 46 237 0.0 2.0 0.06 0.07 0.07 82 1005.4
20260505040052 47 237 0.0 1.0 0.06 0.07 0.07 82 1005.2
20260505035551 47 237 0.0 1.0 0.06 0.07 0.07 81 1005.0
20260505035050 47 236 0.0 1.0 0.05 0.06 0.06 81 1005.0
20260505034551 47 236 0.0 1.0 0.05 0.06 0.06 80 1005.0
20260505034048 47 236 0.0 2.0 0.04 0.05 0.05 79 1004.9
20260505033549 47 236 0.0 4.0 0.03 0.04 0.04 79 1005.0
20260505033048 48 236 2.0 5.0 0.03 0.04 0.04 78 1005.2
20260505032548 48 239 1.0 5.0 0.02 0.03 0.03 77 1005.1
20260505032046 48 223 1.0 5.0 0.01 0.02 0.02 76 1005.1
20260505031551 48 227 2.0 9.0 0.00 0.01 0.01 74 1004.9
20260505031046 48 224 3.0 9.0 0.00 0.01 0.01 73 1004.7
20260505030550 48 214 3.0 6.0 0.00 0.01 0.01 72 1004.7
20260505030046 48 215 2.0 5.0 0.00 0.01 0.01 73 1004.5
20260505025546 48 194 2.0 5.0 0.00 0.01 0.01 73 1004.4
20260505025047 48 212 2.0 5.0 0.00 0.01 0.01 74 1004.3
20260505024551 48 208 2.0 5.0 0.00 0.01 0.01 74 1004.3
20260505024045 48 211 0.0 4.0 0.00 0.01 0.01 74 1004.2
20260505023545 48 211 0.0 4.0 0.00 0.01 0.01 74 1004.1
20260505023051 48 211 2.0 5.0 0.00 0.01 0.01 74 1003.9
20260505022545 48 211 2.0 5.0 0.00 0.01 0.01 73 1003.9
20260505022047 48 205 2.0 7.0 0.00 0.01 0.01 73 1003.6
20260505021545 49 205 3.0 7.0 0.00 0.01 0.01 73 1003.5
20260505021042 49 198 2.0 4.0 0.01 0.01 0.01 72 1003.4
20260505020542 49 215 1.0 4.0 0.01 0.01 0.01 71 1003.4
20260505020043 50 220 1.0 4.0 0.01 0.01 0.01 70 1003.6
20260505015541 50 220 2.0 4.0 0.01 0.01 0.01 70 1003.7
20260505015041 50 238 1.0 4.0 0.01 0.01 0.01 69 1003.5
20260505014540 51 247 0.0 2.0 0.01 0.01 0.01 67 1003.5
20260505014039 51 247 0.0 2.0 0.01 0.01 0.01 66 1003.2
20260505013539 51 247 0.0 3.0 0.01 0.01 0.01 64 1002.9
20260505013039 51 247 0.0 4.0 0.01 0.01 0.01 65 1003.2
20260505012539 51 247 2.0 5.0 0.01 0.01 0.01 64 1003.3
20260505012039 52 248 2.0 5.0 0.01 0.01 0.01 63 1003.3
20260505011542 53 316 0.0 2.0 0.01 0.01 0.01 63 1003.4
20260505011039 53 317 0.0 8.0 0.00 0.00 0.00 60 1003.5
20260505010539 53 317 1.0 8.0 0.00 0.00 0.00 58 1003.5
20260505010101 54 288 2.0 11.0 0.00 0.00 0.00 55 1003.4
20260505005538 55 348 4.0 11.0 0.00 0.00 0.00 49 1003.3
20260505005034 56 315 1.0 10.0 0.00 0.00 0.00 46 1003.2
20260505004534 56 306 2.0 11.0 0.00 0.00 0.00 45 1003.2
20260505004033 56 322 5.0 11.0 0.00 0.00 0.00 44 1003.0
20260505003532 57 338 1.0 6.0 0.00 0.00 0.00 43 1002.9
20260505003035 57 33 3.0 8.0 0.00 0.00 0.00 42 1002.9
20260505002532 57 351 1.0 6.0 0.00 0.00 0.00 41 1002.8
20260505002032 58 55 0.0 4.0 0.00 0.00 0.00 41 1002.9
20260505001532 58 54 1.0 4.0 0.00 0.00 0.00 40 1002.5
20260505001031 58 101 0.0 0.0 0.00 0.00 0.00 39 1002.4
20260505000531 58 101 0.0 0.0 0.00 0.00 0.00 39 1002.4
20260505000042 59 101 0.0 2.0 0.00 0.00 0.00 38 1002.3
20260504235534 59 101 0.0 4.0 0.00 0.00 0.00 38 1002.3
20260504235031 59 101 0.0 6.0 0.00 0.00 0.00 37 1002.2
20260504234530 60 34 3.0 8.0 0.00 0.00 0.00 36 1002.3
20260504234029 60 28 2.0 8.0 0.00 0.00 0.00 36 1002.2
20260504233529 60 71 3.0 7.0 0.00 0.00 0.00 35 1002.3
20260504233029 61 19 1.0 8.0 0.00 0.00 0.00 33 1002.3
20260504232529 61 18 3.0 11.0 0.00 0.00 0.00 32 1002.1
20260504232028 61 39 1.0 11.0 0.00 0.00 0.00 32 1001.9
20260504231528 62 318 3.0 10.0 0.00 0.00 0.00 31 1002.2
20260504231029 62 28 1.0 10.0 0.00 0.00 0.00 31 1001.9
20260504230529 62 348 2.0 12.0 0.00 0.00 0.00 31 1001.7
20260504230039 63 350 2.0 12.0 0.00 0.00 0.00 30 1001.3
20260504225528 64 32 3.0 14.0 0.00 0.00 0.00 29 1001.2
20260504225028 65 327 4.0 14.0 0.00 0.00 0.00 28 1000.7
20260504224528 65 306 0.0 5.0 0.00 0.00 0.00 27 1000.6
20260504224027 65 307 1.0 8.0 0.00 0.00 0.00 27 1000.7
20260504223528 65 336 2.0 8.0 0.00 0.00 0.00 26 1000.4
20260504223028 65 31 1.0 4.0 0.00 0.00 0.00 25 1000.4
20260504222528 66 26 2.0 4.0 0.00 0.00 0.00 25 1000.5
20260504222027 66 20 1.0 9.0 0.00 0.00 0.00 26 1000.5
20260504221539 66 360 2.0 9.0 0.00 0.00 0.00 26 1000.6
20260504221027 66 35 2.0 9.0 0.00 0.00 0.00 26 1000.4
20260504220531 66 338 2.0 15.0 0.00 0.00 0.00 25 1000.5
20260504220027 66 5 5.0 15.0 0.00 0.00 0.00 26 1000.5
20260504215527 66 21 3.0 9.0 0.00 0.00 0.00 27 1000.5
20260504215026 65 320 2.0 9.0 0.00 0.00 0.00 28 1000.6
20260504214526 65 30 2.0 10.0 0.00 0.00 0.00 27 1000.6
20260504214025 65 338 4.0 10.0 0.00 0.00 0.00 27 1000.5
20260504213524 65 348 2.0 8.0 0.00 0.00 0.00 27 1000.7
20260504213030 64 342 2.0 8.0 0.00 0.00 0.00 28 1000.9
20260504212524 65 336 3.0 8.0 0.00 0.00 0.00 27 1001.0
20260504212023 65 294 3.0 12.0 0.00 0.00 0.00 27 1000.9
20260504211527 65 344 4.0 12.0 0.00 0.00 0.00 26 1000.9
20260504211024 65 5 2.0 10.0 0.00 0.00 0.00 27 1000.9
20260504210524 66 16 3.0 13.0 0.00 0.00 0.00 27 1000.7
20260504210024 66 300 4.0 13.0 0.00 0.00 0.00 27 1000.7
20260504205524 66 339 3.0 15.0 0.00 0.00 0.00 26 1000.8
20260504205023 66 28 6.0 15.0 0.00 0.00 0.00 25 1000.7
20260504204528 67 348 3.0 11.0 0.00 0.00 0.00 26 1000.8
20260504204023 67 42 6.0 12.0 0.00 0.00 0.00 24 1000.8
20260504203524 68 355 2.0 11.0 0.00 0.00 0.00 24 1000.6
20260504203022 68 262 4.0 13.0 0.00 0.00 0.00 23 1000.7
20260504202521 70 360 5.0 13.0 0.00 0.00 0.00 22 1000.7
20260504202021 71 5 3.0 13.0 0.00 0.00 0.00 23 1000.7
20260504201523 69 360 4.0 13.0 0.00 0.00 0.00 26 1000.9
20260504201021 68 38 4.0 14.0 0.00 0.00 0.00 26 1000.9
20260504200523 67 355 5.0 14.0 0.00 0.00 0.00 26 1001.1
20260504200019 66 5 3.0 12.0 0.00 0.00 0.00 27 1001.1
20260504195519 66 55 5.0 15.0 0.00 0.00 0.00 27 1001.1
20260504195018 66 76 5.0 15.0 0.00 0.00 0.00 25 1001.1
20260504194620 67 5 5.0 13.0 0.00 0.00 0.00 25 1001.1
20260504194018 66 346 2.0 15.0 0.00 0.00 0.00 26 1001.2
20260504193520 67 19 3.0 18.0 0.00 0.00 0.00 26 1001.1
20260504193021 68 19 6.0 18.0 0.00 0.00 0.00 24 1001.2
20260504192517 68 45 5.0 14.0 0.00 0.00 0.00 24 1001.1
20260504192017 68 28 4.0 14.0 0.00 0.00 0.00 24 1001.0
20260504191529 68 19 4.0 16.0 0.00 0.00 0.00 24 1001.2
20260504191017 69 324 4.0 16.0 0.00 0.00 0.00 22 1001.0
20260504190518 71 348 7.0 16.0 0.00 0.00 0.00 21 1001.0
20260504190017 72 321 3.0 13.0 0.00 0.00 0.00 19 1000.9
20260504185516 72 107 3.0 10.0 0.00 0.00 0.00 19 1000.9
20260504185016 72 320 4.0 10.0 0.00 0.00 0.00 14 1000.8
20260504184518 72 172 4.0 9.0 0.00 0.00 0.00 14 1000.8
20260504184015 72 213 5.0 9.0 0.00 0.00 0.00 15 1000.9
20260504183515 73 35 3.0 9.0 0.00 0.00 0.00 13 1001.0
20260504183014 73 266 4.0 7.0 0.00 0.00 0.00 14 1000.9
20260504182516 72 348 2.0 12.0 0.00 0.00 0.00 15 1001.1
20260504182013 72 309 3.0 12.0 0.00 0.00 0.00 16 1001.2
20260504181516 72 209 6.0 11.0 0.00 0.00 0.00 17 1001.2
20260504181012 72 212 6.0 12.0 0.00 0.00 0.00 17 1001.2
20260504180510 72 223 5.0 10.0 0.00 0.00 0.00 17 1001.3
20260504180012 71 243 2.0 9.0 0.00 0.00 0.00 19 1001.4
20260504175507 71 227 4.0 13.0 0.00 0.00 0.00 17 1001.5
20260504175006 71 224 5.0 13.0 0.00 0.00 0.00 18 1001.6
20260504174505 71 261 4.0 13.0 0.00 0.00 0.00 17 1001.8
20260504174003 71 201 5.0 14.0 0.00 0.00 0.00 19 1002.0
20260504173502 71 240 5.0 12.0 0.00 0.00 0.00 18 1002.1
20260504173100 71 230 3.0 12.0 0.00 0.00 0.00 20 1002.2
20260504172600 71 234 7.0 15.0 0.00 0.00 0.00 19 1002.3
20260504172059 71 246 7.0 15.0 0.00 0.00 0.00 20 1002.3
20260504171600 70 273 2.0 12.0 0.00 0.00 0.00 21 1002.5
20260504171057 70 301 4.0 12.0 0.00 0.00 0.00 22 1002.4
20260504170557 70 251 6.0 12.0 0.00 0.00 0.00 21 1002.6
20260504151030 65 309 6.0 16.0 0.00 0.00 0.00 24 1003.5
20260504150529 65 275 6.0 16.0 0.00 0.00 0.00 24 1003.4
20260504141018 60 190 5.0 10.0 0.00 0.00 0.00 27 1003.9
20260504140515 60 174 3.0 7.0 0.00 0.00 0.00 28 1003.9
20260504130600 53 226 0.0 3.0 0.00 0.00 0.00 34 1003.9